Regional Weather Roundup
Issued by NWS

Home | Current Version | Previous Version | Text Only | Print | Product List | Glossary Off
Versions: 1 2 3 4 5 6 7 8 9 10 11 12 13 14 15 16 17 18 19 20 21 22 23 24 25 26 27 28 29 30 31 32 33 34 35 36 37 38 39 40 41 42 43 44 45 46 47 48 49 50

000
ASUS43 KBIS 190610
RWRND

NORTH DAKOTA REGIONAL WEATHER ROUNDUP
NATIONAL WEATHER SERVICE BISMARCK ND
100 AM CDT SAT APR 19 2014

NOTE: "FAIR" INDICATES FEW OR NO CLOUDS BELOW 12,000 FEET WITH NO
SIGNIFICANT WEATHER AND/OR OBSTRUCTIONS TO VISIBILITY.


NDZ001>003-009>011-017-190700-
NORTHWEST NORTH DAKOTA

CITY           SKY/WX    TMP DP  RH WIND       PRES   REMARKS
WILLISTON      LGT RAIN  46  37  71 W8        29.70F
6HR MIN TEMP:  35; 6HR MAX TEMP:  55; 6HR PCP:  0.10;

MINOT          FAIR      38  34  85 SE5       29.68S
MINOT AFB      FAIR      36  36  99 SE6       29.68S
$$

NDZ018>021-031>035-040>046-190700-
SOUTHWEST NORTH DAKOTA

CITY           SKY/WX    TMP DP  RH WIND       PRES   REMARKS
BISMARCK       PTCLDY    45  37  73 NW5       29.65R
6HR MIN TEMP:  45; 6HR MAX TEMP:  56;

DICKINSON      CLEAR     41  35  79 W18       29.77R
GARRISON         N/A     37  35  92 VRB5      29.69R
6HR MIN TEMP:  37; 6HR MAX TEMP:  52; 6HR PCP:  0.02;

HETTINGER ARPT CLEAR     43  35  73 NW29G40   29.81R
$$

NDZ004>008-012>016-024-026-027-054-190700-
NORTHEAST NORTH DAKOTA

CITY           SKY/WX    TMP DP  RH WIND       PRES   REMARKS
GRAND FORKS    LGT RAIN  43  32  65 SE28G40   29.79F
GRND FRKS AFB  FAIR      43  32  63 S25G32    29.78F
DEVILS LAKE    FAIR      39  28  65 SE21      29.71F
$$

NDZ022-023-025-028>030-036>039-047>053-190700-
SOUTHEAST NORTH DAKOTA

CITY           SKY/WX    TMP DP  RH WIND       PRES   REMARKS
FARGO          FAIR      48  30  49 SE39G54   29.80F
6HR MIN TEMP:  44; 6HR MAX TEMP:  48;

JAMESTOWN      FAIR      46  37  71 SE20G30   29.64F
$$




USA.gov is the U.S. government's official web portal to all federal, state and local government web resources and services.